Time,TemperatureF,DewpointF,PressureIn,WindDirection,WindDirectionDegrees,WindSpeedMPH,WindSpeedGustMPH,Humidity,HourlyPrecipIn,Conditions,Clouds,dailyrainin,SoftwareType,DateUTC
2013-01-14 00:00:00,30.9,-99.9,30.43,East,84,0.0,0.0,-999,0.00,,,0.00,homebrew,2013-01-14 08:00:00,
2013-01-14 00:05:00,30.9,-99.9,30.43,East,84,0.0,0.0,-999,0.00,,,0.00,homebrew,2013-01-14 08:05:00,
2013-01-14 00:10:00,30.9,-99.9,30.44,East,84,0.0,0.0,-999,0.00,,,0.00,homebrew,2013-01-14 08:10:00,
2013-01-14 00:20:00,30.9,-99.9,30.44,West,260,0.0,1.7,-999,0.00,,,0.00,homebrew,2013-01-14 08:20:00,
2013-01-14 00:25:00,30.9,-99.9,30.43,West,260,0.0,0.0,-999,0.00,,,0.00,homebrew,2013-01-14 08:25:00,
2013-01-14 00:35:00,30.8,-99.9,30.44,West,260,0.0,0.0,-999,0.00,,,0.00,homebrew,2013-01-14 08:35:00,
2013-01-14 00:40:00,30.8,-99.9,30.44,West,260,0.0,0.0,-999,0.00,,,0.00,homebrew,2013-01-14 08:40:00,
2013-01-14 00:44:00,30.8,-99.9,30.44,West,260,0.0,0.0,-999,0.00,,,0.00,homebrew,2013-01-14 08:44:00,
2013-01-14 00:50:00,30.8,-99.9,30.44,West,260,0.0,0.0,-999,0.00,,,0.00,homebrew,2013-01-14 08:50:00,
2013-01-14 00:55:00,30.8,-99.9,30.43,West,260,0.0,0.0,-999,0.00,,,0.00,homebrew,2013-01-14 08:55:00,
2013-01-14 01:00:00,30.7,-99.9,30.43,West,260,0.0,0.0,-999,0.00,,,0.00,homebrew,2013-01-14 09:00:00,
2013-01-14 01:05:00,30.7,-99.9,30.44,West,260,0.0,0.0,-999,0.00,,,0.00,homebrew,2013-01-14 09:05:00,
2013-01-14 01:10:00,30.8,-99.9,30.44,West,260,0.0,0.0,-999,0.00,,,0.00,homebrew,2013-01-14 09:10:00,
2013-01-14 01:15:00,30.7,-99.9,30.44,West,260,0.0,0.0,-999,0.00,,,0.00,homebrew,2013-01-14 09:15:00,
2013-01-14 01:25:00,31.0,-99.9,30.44,West,260,0.0,0.0,-999,0.00,,,0.00,homebrew,2013-01-14 09:25:00,
2013-01-14 01:30:00,31.1,-99.9,30.45,West,260,0.0,0.0,-999,0.00,,,0.00,homebrew,2013-01-14 09:30:00,
2013-01-14 01:40:00,31.1,-99.9,30.45,West,260,0.0,0.0,-999,0.00,,,0.00,homebrew,2013-01-14 09:40:00,
2013-01-14 01:45:00,31.1,-99.9,30.44,West,260,0.0,0.0,-999,0.00,,,0.00,homebrew,2013-01-14 09:45:00,
2013-01-14 01:55:00,31.4,-99.9,30.45,West,260,0.0,0.0,-999,0.00,,,0.00,homebrew,2013-01-14 09:55:00,
2013-01-14 02:05:00,31.5,-99.9,30.45,West,260,0.0,0.0,-999,0.00,,,0.00,homebrew,2013-01-14 10:05:00,
2013-01-14 02:10:00,31.7,-99.9,30.45,East,81,0.7,3.1,-999,0.00,,,0.00,homebrew,2013-01-14 10:10:00,
2013-01-14 02:20:00,31.6,-99.9,30.45,East,101,1.8,3.9,-999,0.00,,,0.00,homebrew,2013-01-14 10:20:00,
2013-01-14 02:30:00,31.5,-99.9,30.45,ESE,114,2.8,3.5,-999,0.00,,,0.00,homebrew,2013-01-14 10:30:00,
2013-01-14 02:35:00,31.5,-99.9,30.45,East,96,3.2,5.8,-999,0.00,,,0.00,homebrew,2013-01-14 10:35:00,
2013-01-14 02:39:00,31.6,-99.9,30.45,East,80,1.6,5.7,-999,0.00,,,0.00,homebrew,2013-01-14 10:39:00,
2013-01-14 02:45:00,31.6,-99.9,30.45,East,96,0.2,3.2,-999,0.00,,,0.00,homebrew,2013-01-14 10:45:00,
2013-01-14 02:50:00,31.7,-99.9,30.45,ESE,108,0.3,2.2,-999,0.00,,,0.00,homebrew,2013-01-14 10:50:00,
2013-01-14 02:54:00,31.7,-99.9,30.45,East,89,1.6,3.4,-999,0.00,,,0.00,homebrew,2013-01-14 10:54:00,
2013-01-14 03:00:00,31.6,-99.9,30.45,East,84,1.7,3.8,-999,0.00,,,0.00,homebrew,2013-01-14 11:00:00,
2013-01-14 03:05:00,31.7,-99.9,30.45,ENE,59,0.1,2.5,-999,0.00,,,0.00,homebrew,2013-01-14 11:05:00,
2013-01-14 03:10:00,31.7,-99.9,30.45,ENE,59,0.0,0.0,-999,0.00,,,0.00,homebrew,2013-01-14 11:10:00,
2013-01-14 03:20:00,31.7,-99.9,30.46,ENE,59,0.0,0.0,-999,0.00,,,0.00,homebrew,2013-01-14 11:20:00,
2013-01-14 03:25:00,31.6,-99.9,30.45,ENE,59,0.0,0.0,-999,0.00,,,0.00,homebrew,2013-01-14 11:25:00,
2013-01-14 03:35:00,31.5,-99.9,30.45,ENE,59,0.0,0.0,-999,0.00,,,0.00,homebrew,2013-01-14 11:35:00,
2013-01-14 03:40:00,31.5,-99.9,30.45,ENE,59,0.0,0.0,-999,0.00,,,0.00,homebrew,2013-01-14 11:40:00,
2013-01-14 03:44:00,31.4,-99.9,30.45,ENE,59,0.0,0.0,-999,0.00,,,0.00,homebrew,2013-01-14 11:44:00,
2013-01-14 03:50:00,31.4,-99.9,30.45,ENE,59,0.0,0.0,-999,0.00,,,0.00,homebrew,2013-01-14 11:50:00,
2013-01-14 03:55:00,31.4,-99.9,30.45,ENE,59,0.0,0.0,-999,0.00,,,0.00,homebrew,2013-01-14 11:55:00,
2013-01-14 03:59:00,31.3,-99.9,30.45,ENE,59,0.0,0.0,-999,0.00,,,0.00,homebrew,2013-01-14 11:59:00,
2013-01-14 04:04:00,31.4,-99.9,30.45,ENE,59,0.0,0.0,-999,0.00,,,0.00,homebrew,2013-01-14 12:04:00,
2013-01-14 04:10:00,31.4,-99.9,30.45,ENE,59,0.0,0.0,-999,0.00,,,0.00,homebrew,2013-01-14 12:10:00,
2013-01-14 04:15:00,31.3,-99.9,30.45,ENE,59,0.0,0.0,-999,0.00,,,0.00,homebrew,2013-01-14 12:15:00,
2013-01-14 04:20:00,31.3,-99.9,30.45,ENE,59,0.0,0.0,-999,0.00,,,0.00,homebrew,2013-01-14 12:20:00,
2013-01-14 04:25:00,31.2,-99.9,30.45,ENE,59,0.0,0.0,-999,0.00,,,0.00,homebrew,2013-01-14 12:25:00,
2013-01-14 04:30:00,31.2,-99.9,30.45,ENE,59,0.0,0.0,-999,0.00,,,0.00,homebrew,2013-01-14 12:30:00,
2013-01-14 04:35:00,31.2,-99.9,30.45,ENE,59,0.0,0.0,-999,0.00,,,0.00,homebrew,2013-01-14 12:35:00,
2013-01-14 04:45:00,31.1,-99.9,30.45,ENE,59,0.0,0.0,-999,0.00,,,0.00,homebrew,2013-01-14 12:45:00,
2013-01-14 04:49:00,31.0,-99.9,30.44,ENE,59,0.0,0.0,-999,0.00,,,0.00,homebrew,2013-01-14 12:49:00,
2013-01-14 04:55:00,30.9,-99.9,30.45,ENE,59,0.0,0.0,-999,0.00,,,0.00,homebrew,2013-01-14 12:55:00,
2013-01-14 05:00:00,30.9,-99.9,30.45,ENE,59,0.0,0.0,-999,0.00,,,0.00,homebrew,2013-01-14 13:00:00,
2013-01-14 05:05:00,30.9,-99.9,30.44,ENE,59,0.0,0.0,-999,0.00,,,0.00,homebrew,2013-01-14 13:05:00,
2013-01-14 05:15:00,30.9,-99.9,30.45,ENE,59,0.0,0.0,-999,0.00,,,0.00,homebrew,2013-01-14 13:15:00,
2013-01-14 05:20:00,30.8,-99.9,30.45,ENE,59,0.0,0.0,-999,0.00,,,0.00,homebrew,2013-01-14 13:20:00,
2013-01-14 05:30:00,30.9,-99.9,30.45,ENE,59,0.0,0.0,-999,0.00,,,0.00,homebrew,2013-01-14 13:30:00,
2013-01-14 05:35:00,30.8,-99.9,30.45,ENE,59,0.0,0.0,-999,0.00,,,0.00,homebrew,2013-01-14 13:35:00,
2013-01-14 05:40:00,30.8,-99.9,30.45,ENE,59,0.0,0.0,-999,0.00,,,0.00,homebrew,2013-01-14 13:40:00,
2013-01-14 05:45:00,30.8,-99.9,30.45,ENE,59,0.0,0.0,-999,0.00,,,0.00,homebrew,2013-01-14 13:45:00,
2013-01-14 05:50:00,30.8,-99.9,30.45,ENE,59,0.0,0.0,-999,0.00,,,0.00,homebrew,2013-01-14 13:50:00,
2013-01-14 05:54:00,30.9,-99.9,30.45,ENE,59,0.0,0.0,-999,0.00,,,0.00,homebrew,2013-01-14 13:54:00,
2013-01-14 06:00:00,31.0,-99.9,30.45,SSW,203,0.4,1.1,-999,0.00,,,0.00,homebrew,2013-01-14 14:00:00,
2013-01-14 06:05:00,31.1,-99.9,30.45,SSW,192,0.4,4.8,-999,0.00,,,0.00,homebrew,2013-01-14 14:05:00,
2013-01-14 06:10:00,31.1,-99.9,30.46,South,189,0.0,0.0,-999,0.00,,,0.00,homebrew,2013-01-14 14:10:00,
2013-01-14 06:20:00,31.2,-99.9,30.46,SW,232,1.9,4.3,-999,0.00,,,0.00,homebrew,2013-01-14 14:20:00,
2013-01-14 06:25:00,31.2,-99.9,30.46,SSW,203,0.4,4.6,-999,0.00,,,0.00,homebrew,2013-01-14 14:25:00,
2013-01-14 06:35:00,31.2,-99.9,30.47,SSW,195,0.0,0.0,-999,0.00,,,0.00,homebrew,2013-01-14 14:35:00,
2013-01-14 06:40:00,31.2,-99.9,30.45,SSW,195,0.0,0.0,-999,0.00,,,0.00,homebrew,2013-01-14 14:40:00,
2013-01-14 06:44:00,31.2,-99.9,30.45,SSW,195,0.0,0.0,-999,0.00,,,0.00,homebrew,2013-01-14 14:44:00,
2013-01-14 06:50:00,31.2,-99.9,30.45,SSW,195,0.0,0.0,-999,0.00,,,0.00,homebrew,2013-01-14 14:50:00,
2013-01-14 06:55:00,31.2,-99.9,30.45,SSW,195,0.0,0.0,-999,0.00,,,0.00,homebrew,2013-01-14 14:55:00,
2013-01-14 06:59:00,31.3,-99.9,30.45,SSW,195,0.0,0.0,-999,0.00,,,0.00,homebrew,2013-01-14 14:59:00,
2013-01-14 07:04:00,31.3,-99.9,30.45,SSW,195,0.0,0.0,-999,0.00,,,0.00,homebrew,2013-01-14 15:04:00,
2013-01-14 07:10:00,31.3,-99.9,30.46,SSW,193,0.5,0.0,-999,0.00,,,0.00,homebrew,2013-01-14 15:10:00,
2013-01-14 07:15:00,31.3,-99.9,30.46,SSE,147,0.0,3.4,-999,0.00,,,0.00,homebrew,2013-01-14 15:15:00,
2013-01-14 07:25:00,31.3,-99.9,30.46,SSE,147,0.0,0.0,-999,0.00,,,0.00,homebrew,2013-01-14 15:25:00,
2013-01-14 07:30:00,31.4,-99.9,30.46,SSE,147,0.0,0.0,-999,0.00,,,0.00,homebrew,2013-01-14 15:30:00,
2013-01-14 07:40:00,31.5,-99.9,30.47,South,169,0.7,4.5,-999,0.00,,,0.00,homebrew,2013-01-14 15:40:00,
2013-01-14 07:45:00,31.5,-99.9,30.47,SE,146,0.0,0.0,-999,0.00,,,0.00,homebrew,2013-01-14 15:45:00,
2013-01-14 07:49:00,31.6,-99.9,30.47,SE,146,0.0,0.0,-999,0.00,,,0.00,homebrew,2013-01-14 15:49:00,
2013-01-14 07:55:00,31.6,-99.9,30.46,South,177,1.0,2.1,-999,0.00,,,0.00,homebrew,2013-01-14 15:55:00,
2013-01-14 08:00:00,31.7,-99.9,30.47,South,170,0.1,3.7,-999,0.00,,,0.00,homebrew,2013-01-14 16:00:00,
2013-01-14 08:04:00,31.8,-99.9,30.46,South,170,0.0,0.0,-999,0.00,,,0.00,homebrew,2013-01-14 16:04:00,
2013-01-14 08:09:00,31.8,-99.9,30.47,SSW,206,0.9,0.0,-999,0.00,,,0.00,homebrew,2013-01-14 16:09:00,
2013-01-14 08:15:00,31.6,-99.9,30.47,WSW,241,2.1,5.1,-999,0.00,,,0.00,homebrew,2013-01-14 16:15:00,
2013-01-14 08:20:00,31.6,-99.9,30.47,South,187,1.1,4.5,-999,0.00,,,0.00,homebrew,2013-01-14 16:20:00,
2013-01-14 08:30:00,31.6,-99.9,30.47,South,174,0.6,2.7,-999,0.00,,,0.00,homebrew,2013-01-14 16:30:00,
2013-01-14 08:35:00,31.7,-99.9,30.47,South,188,0.9,2.8,-999,0.00,,,0.00,homebrew,2013-01-14 16:35:00,
2013-01-14 08:45:00,31.8,-99.9,30.47,South,180,0.0,0.5,-999,0.00,,,0.00,homebrew,2013-01-14 16:45:00,
2013-01-14 08:50:00,31.8,-99.9,30.47,South,180,0.0,0.0,-999,0.00,,,0.00,homebrew,2013-01-14 16:50:00,
2013-01-14 08:54:00,31.8,-99.9,30.47,South,174,0.3,0.0,-999,0.00,,,0.00,homebrew,2013-01-14 16:54:00,
2013-01-14 09:00:00,31.9,-99.9,30.47,SSE,164,0.0,3.8,-999,0.00,,,0.00,homebrew,2013-01-14 17:00:00,
2013-01-14 09:05:00,31.9,-99.9,30.46,SSE,168,1.0,4.5,-999,0.00,,,0.00,homebrew,2013-01-14 17:05:00,
2013-01-14 09:10:00,32.0,-99.9,30.47,SE,146,0.5,3.1,-999,0.00,,,0.00,homebrew,2013-01-14 17:10:00,
2013-01-14 09:20:00,32.0,-99.9,30.47,SSW,204,0.8,4.4,-999,0.00,,,0.00,homebrew,2013-01-14 17:20:00,
2013-01-14 09:25:00,32.0,-99.9,30.47,SW,226,0.3,2.7,-999,0.00,,,0.00,homebrew,2013-01-14 17:25:00,
2013-01-14 09:35:00,32.2,-99.9,30.48,SSE,149,0.0,1.0,-999,0.00,,,0.00,homebrew,2013-01-14 17:35:00,
2013-01-14 09:40:00,32.3,-99.9,30.48,SSE,149,0.0,0.0,-999,0.00,,,0.00,homebrew,2013-01-14 17:40:00,
2013-01-14 09:44:00,32.5,-99.9,30.48,SSE,155,0.3,0.0,-999,0.00,,,0.00,homebrew,2013-01-14 17:44:00,
2013-01-14 09:50:00,32.5,-99.9,30.48,SE,140,0.0,3.0,-999,0.00,,,0.00,homebrew,2013-01-14 17:50:00,
2013-01-14 09:55:00,32.6,-99.9,30.47,SE,132,0.0,0.0,-999,0.00,,,0.00,homebrew,2013-01-14 17:55:00,
2013-01-14 09:59:00,32.7,-99.9,30.47,SSW,212,2.7,6.2,-999,0.00,,,0.00,homebrew,2013-01-14 17:59:00,
2013-01-14 10:04:00,32.8,-99.9,30.47,South,176,0.6,5.7,-999,0.00,,,0.00,homebrew,2013-01-14 18:04:00,
2013-01-14 10:10:00,32.9,-99.9,30.47,SSW,213,1.4,4.2,-999,0.00,,,0.00,homebrew,2013-01-14 18:10:00,
2013-01-14 10:15:00,33.2,-99.9,30.48,SSW,198,0.3,4.9,-999,0.00,,,0.00,homebrew,2013-01-14 18:15:00,
2013-01-14 10:25:00,33.2,-99.9,30.48,WSW,237,2.5,4.3,-999,0.00,,,0.00,homebrew,2013-01-14 18:25:00,
2013-01-14 10:30:00,33.2,-99.9,30.48,SW,224,1.5,4.2,-999,0.00,,,0.00,homebrew,2013-01-14 18:30:00,
2013-01-14 10:40:00,33.3,-99.9,30.48,SSW,211,1.3,3.6,-999,0.00,,,0.00,homebrew,2013-01-14 18:40:00,
2013-01-14 10:45:00,33.2,-99.9,30.48,SSE,163,0.4,4.5,-999,0.00,,,0.00,homebrew,2013-01-14 18:45:00,
2013-01-14 10:49:00,33.3,-99.9,30.48,SSW,199,1.0,5.1,-999,0.00,,,0.00,homebrew,2013-01-14 18:49:00,
2013-01-14 10:55:00,33.3,-99.9,30.48,SW,222,1.3,3.9,-999,0.00,,,0.00,homebrew,2013-01-14 18:55:00,
2013-01-14 11:00:00,33.3,-99.9,30.48,SW,224,1.6,3.0,-999,0.00,,,0.00,homebrew,2013-01-14 19:00:00,
2013-01-14 11:05:00,33.4,-99.9,30.48,SW,229,0.4,3.4,-999,0.00,,,0.00,homebrew,2013-01-14 19:05:00,
2013-01-14 11:15:00,33.9,-99.9,30.48,SW,215,0.1,2.4,-999,0.00,,,0.00,homebrew,2013-01-14 19:15:00,
2013-01-14 11:20:00,34.2,-99.9,30.47,SW,226,0.0,2.2,-999,0.00,,,0.00,homebrew,2013-01-14 19:20:00,
2013-01-14 11:30:00,34.3,-99.9,30.47,SSE,159,0.5,2.0,-999,0.00,,,0.00,homebrew,2013-01-14 19:30:00,
2013-01-14 11:35:00,34.4,-99.9,30.47,ESE,115,0.0,2.9,-999,0.00,,,0.00,homebrew,2013-01-14 19:35:00,
2013-01-14 11:39:00,34.6,-99.9,30.47,ESE,115,0.0,0.0,-999,0.00,,,0.00,homebrew,2013-01-14 19:39:00,
2013-01-14 11:45:00,34.8,-99.9,30.47,ESE,115,0.0,0.0,-999,0.00,,,0.00,homebrew,2013-01-14 19:45:00,
2013-01-14 11:50:00,34.9,-99.9,30.47,ESE,115,0.0,0.0,-999,0.00,,,0.00,homebrew,2013-01-14 19:50:00,
2013-01-14 11:54:00,34.6,-99.9,30.47,SSE,158,0.3,2.3,-999,0.00,,,0.00,homebrew,2013-01-14 19:54:00,
2013-01-14 12:00:00,34.6,-99.9,30.47,SSW,203,0.7,1.9,-999,0.00,,,0.00,homebrew,2013-01-14 20:00:00,
2013-01-14 12:05:00,34.5,-99.9,30.47,WSW,237,1.9,3.9,-999,0.00,,,0.00,homebrew,2013-01-14 20:05:00,
2013-01-14 12:10:00,34.3,-99.9,30.47,WSW,240,2.2,6.9,-999,0.00,,,0.00,homebrew,2013-01-14 20:10:00,
2013-01-14 12:20:00,34.2,-99.9,30.47,WSW,251,1.6,4.5,-999,0.00,,,0.00,homebrew,2013-01-14 20:20:00,
2013-01-14 12:25:00,34.4,-99.9,30.47,South,188,0.1,4.0,-999,0.00,,,0.00,homebrew,2013-01-14 20:25:00,
2013-01-14 12:35:00,34.6,-99.9,30.47,SW,225,0.8,3.1,-999,0.00,,,0.00,homebrew,2013-01-14 20:35:00,
2013-01-14 12:40:00,34.8,-99.9,30.47,SSE,160,0.0,3.1,-999,0.00,,,0.00,homebrew,2013-01-14 20:40:00,
2013-01-14 12:44:00,35.0,-99.9,30.47,SSE,160,0.0,0.0,-999,0.00,,,0.00,homebrew,2013-01-14 20:44:00,
2013-01-14 12:50:00,35.1,-99.9,30.47,SSE,160,0.0,0.0,-999,0.00,,,0.00,homebrew,2013-01-14 20:50:00,
2013-01-14 12:55:00,34.9,-99.9,30.47,SW,222,1.0,2.2,-999,0.00,,,0.00,homebrew,2013-01-14 20:55:00,
2013-01-14 12:59:00,34.8,-99.9,30.47,WSW,240,1.4,3.0,-999,0.00,,,0.00,homebrew,2013-01-14 20:59:00,
2013-01-14 13:04:00,34.9,-99.9,30.47,WSW,238,0.3,3.9,-999,0.00,,,0.00,homebrew,2013-01-14 21:04:00,
2013-01-14 13:10:00,35.0,-99.9,30.47,WSW,244,1.3,3.2,-999,0.00,,,0.00,homebrew,2013-01-14 21:10:00,
2013-01-14 13:15:00,35.2,-99.9,30.47,SW,229,1.4,2.9,-999,0.00,,,0.00,homebrew,2013-01-14 21:15:00,
2013-01-14 13:25:00,35.4,-99.9,30.47,SW,223,0.6,1.7,-999,0.00,,,0.00,homebrew,2013-01-14 21:25:00,
2013-01-14 13:30:00,35.4,-99.9,30.47,SW,215,0.7,2.2,-999,0.00,,,0.00,homebrew,2013-01-14 21:30:00,
2013-01-14 13:40:00,35.5,-99.9,30.47,SSE,154,0.3,2.2,-999,0.00,,,0.00,homebrew,2013-01-14 21:40:00,
2013-01-14 13:45:00,35.6,-99.9,30.47,SW,236,0.9,2.3,-999,0.00,,,0.00,homebrew,2013-01-14 21:45:00,
2013-01-14 13:49:00,35.5,-99.9,30.47,WSW,237,1.4,4.9,-999,0.00,,,0.00,homebrew,2013-01-14 21:49:00,
2013-01-14 13:55:00,35.5,-99.9,30.47,WSW,237,0.7,3.0,-999,0.00,,,0.00,homebrew,2013-01-14 21:55:00,
2013-01-14 14:00:00,35.6,-99.9,30.47,SW,224,0.6,2.9,-999,0.00,,,0.00,homebrew,2013-01-14 22:00:00,
2013-01-14 14:05:00,35.7,-99.9,30.47,SSW,196,0.5,3.1,-999,0.00,,,0.00,homebrew,2013-01-14 22:05:00,
2013-01-14 14:15:00,35.7,-99.9,30.47,South,184,0.0,0.0,-999,0.00,,,0.00,homebrew,2013-01-14 22:15:00,
2013-01-14 14:20:00,35.7,-99.9,30.47,SW,219,1.4,3.0,-999,0.00,,,0.00,homebrew,2013-01-14 22:20:00,
2013-01-14 14:30:00,35.8,-99.9,30.47,SSE,150,0.0,3.2,-999,0.00,,,0.00,homebrew,2013-01-14 22:30:00,
2013-01-14 14:35:00,36.1,-99.9,30.48,SSE,150,0.0,0.0,-999,0.00,,,0.00,homebrew,2013-01-14 22:35:00,
2013-01-14 14:39:00,36.2,-99.9,30.48,SSE,150,0.0,0.0,-999,0.00,,,0.00,homebrew,2013-01-14 22:39:00,
2013-01-14 14:45:00,36.2,-99.9,30.48,SSE,150,0.0,0.0,-999,0.00,,,0.00,homebrew,2013-01-14 22:45:00,
2013-01-14 14:50:00,36.2,-99.9,30.48,South,175,0.5,0.0,-999,0.00,,,0.00,homebrew,2013-01-14 22:50:00,
2013-01-14 14:54:00,36.2,-99.9,30.48,SW,214,1.6,4.3,-999,0.00,,,0.00,homebrew,2013-01-14 22:54:00,
2013-01-14 14:59:00,36.1,-99.9,30.48,SW,223,0.8,4.2,-999,0.00,,,0.00,homebrew,2013-01-14 22:59:00,
2013-01-14 15:05:00,36.3,-99.9,30.48,SSW,212,0.1,1.5,-999,0.00,,,0.00,homebrew,2013-01-14 23:05:00,
2013-01-14 15:10:00,36.4,-99.9,30.48,SSW,209,0.0,1.7,-999,0.00,,,0.00,homebrew,2013-01-14 23:10:00,
2013-01-14 15:20:00,36.2,-99.9,30.49,SSW,209,0.0,0.0,-999,0.00,,,0.00,homebrew,2013-01-14 23:20:00,
2013-01-14 15:25:00,36.2,-99.9,30.49,SSW,209,0.0,0.0,-999,0.00,,,0.00,homebrew,2013-01-14 23:25:00,
2013-01-14 15:35:00,36.3,-99.9,30.49,SSW,196,0.2,0.0,-999,0.00,,,0.00,homebrew,2013-01-14 23:35:00,
2013-01-14 15:40:00,36.4,-99.9,30.48,SSE,156,0.5,2.4,-999,0.00,,,0.00,homebrew,2013-01-14 23:40:00,
2013-01-14 15:44:00,36.6,-99.9,30.49,SE,136,0.0,1.9,-999,0.00,,,0.00,homebrew,2013-01-14 23:44:00,
2013-01-14 15:50:00,36.6,-99.9,30.48,SE,136,0.0,0.0,-999,0.00,,,0.00,homebrew,2013-01-14 23:50:00,
2013-01-14 15:55:00,36.8,-99.9,30.48,SE,136,0.0,0.0,-999,0.00,,,0.00,homebrew,2013-01-14 23:55:00,
2013-01-14 15:59:00,36.7,-99.9,30.48,SE,142,0.1,1.3,-999,0.00,,,0.00,homebrew,2013-01-14 23:59:00,
2013-01-14 16:04:00,36.7,-99.9,30.48,SE,145,0.7,0.0,-999,0.00,,,0.00,homebrew,2013-01-15 00:04:00,
2013-01-14 16:10:00,36.6,-99.9,30.48,SSE,168,0.0,2.4,-999,0.00,,,0.00,homebrew,2013-01-15 00:10:00,
2013-01-14 16:15:00,36.6,-99.9,30.48,SSE,168,0.0,0.0,-999,0.00,,,0.00,homebrew,2013-01-15 00:15:00,
2013-01-14 16:25:00,36.8,-99.9,30.48,SSE,155,0.2,1.9,-999,0.00,,,0.00,homebrew,2013-01-15 00:25:00,
2013-01-14 16:30:00,36.7,-99.9,30.48,SSE,158,0.0,1.2,-999,0.00,,,0.00,homebrew,2013-01-15 00:30:00,
2013-01-14 16:34:00,36.7,-99.9,30.48,SSE,158,0.0,0.0,-999,0.00,,,0.00,homebrew,2013-01-15 00:34:00,
2013-01-14 16:40:00,36.5,-99.9,30.48,SSE,158,0.0,0.0,-999,0.00,,,0.00,homebrew,2013-01-15 00:40:00,
2013-01-14 16:45:00,36.2,-99.9,30.48,SSE,158,0.0,0.0,-999,0.00,,,0.00,homebrew,2013-01-15 00:45:00,
2013-01-14 16:49:00,36.4,-99.9,30.48,SSE,158,0.0,0.0,-999,0.00,,,0.00,homebrew,2013-01-15 00:49:00,
2013-01-14 16:55:00,36.3,-99.9,30.49,SSE,158,0.0,0.0,-999,0.00,,,0.00,homebrew,2013-01-15 00:55:00,
2013-01-14 17:00:00,36.2,-99.9,30.49,SSE,158,0.0,0.0,-999,0.00,,,0.00,homebrew,2013-01-15 01:00:00,
2013-01-14 17:04:00,36.1,-99.9,30.49,SSE,158,0.0,0.0,-999,0.00,,,0.00,homebrew,2013-01-15 01:04:00,
2013-01-14 17:09:00,36.2,-99.9,30.49,SSE,158,0.0,0.0,-999,0.00,,,0.00,homebrew,2013-01-15 01:09:00,
2013-01-14 17:15:00,36.2,-99.9,30.49,SSE,158,0.0,0.0,-999,0.00,,,0.00,homebrew,2013-01-15 01:15:00,
2013-01-14 17:20:00,36.1,-99.9,30.50,SSE,158,0.0,0.0,-999,0.00,,,0.00,homebrew,2013-01-15 01:20:00,
2013-01-14 17:30:00,35.9,-99.9,30.49,SSE,158,0.0,0.0,-999,0.00,,,0.00,homebrew,2013-01-15 01:30:00,
2013-01-14 17:35:00,35.8,-99.9,30.49,SSE,158,0.0,0.0,-999,0.00,,,0.00,homebrew,2013-01-15 01:35:00,
2013-01-14 17:45:00,35.6,-99.9,30.49,SSE,158,0.0,0.0,-999,0.00,,,0.00,homebrew,2013-01-15 01:45:00,
2013-01-14 17:50:00,35.6,-99.9,30.49,SSE,158,0.0,0.0,-999,0.00,,,0.00,homebrew,2013-01-15 01:50:00,
2013-01-14 17:54:00,35.6,-99.9,30.49,SSE,158,0.0,0.0,-999,0.00,,,0.00,homebrew,2013-01-15 01:54:00,
2013-01-14 17:59:00,35.6,-99.9,30.48,SSE,158,0.0,0.0,-999,0.00,,,0.00,homebrew,2013-01-15 01:59:00,
2013-01-14 18:05:00,35.5,-99.9,30.48,SSE,158,0.0,0.0,-999,0.00,,,0.00,homebrew,2013-01-15 02:05:00,
2013-01-14 18:10:00,35.6,-99.9,30.48,SSE,158,0.0,0.0,-999,0.00,,,0.00,homebrew,2013-01-15 02:10:00,
2013-01-14 18:20:00,35.3,-99.9,30.49,SSE,158,0.0,0.0,-999,0.00,,,0.00,homebrew,2013-01-15 02:20:00,
2013-01-14 18:25:00,35.4,-99.9,30.49,SSE,158,0.0,0.0,-999,0.00,,,0.00,homebrew,2013-01-15 02:25:00,
2013-01-14 18:35:00,35.4,-99.9,30.49,SSE,158,0.0,0.0,-999,0.00,,,0.00,homebrew,2013-01-15 02:35:00,
2013-01-14 18:40:00,35.3,-99.9,30.49,SSE,158,0.0,0.0,-999,0.00,,,0.00,homebrew,2013-01-15 02:40:00,
2013-01-14 18:44:00,35.2,-99.9,30.50,SSE,158,0.0,0.0,-999,0.00,,,0.00,homebrew,2013-01-15 02:44:00,
2013-01-14 18:50:00,35.1,-99.9,30.50,SSE,158,0.0,0.0,-999,0.00,,,0.00,homebrew,2013-01-15 02:50:00,
2013-01-14 18:55:00,35.1,-99.9,30.50,SSE,158,0.0,0.0,-999,0.00,,,0.00,homebrew,2013-01-15 02:55:00,
2013-01-14 18:59:00,35.2,-99.9,30.50,SSE,158,0.0,0.0,-999,0.00,,,0.00,homebrew,2013-01-15 02:59:00,
2013-01-14 19:04:00,35.2,-99.9,30.50,SSE,158,0.0,0.0,-999,0.00,,,0.00,homebrew,2013-01-15 03:04:00,
2013-01-14 19:10:00,35.0,-99.9,30.50,SSE,158,0.0,0.0,-999,0.00,,,0.00,homebrew,2013-01-15 03:10:00,
2013-01-14 19:15:00,35.0,-99.9,30.50,SSE,158,0.0,0.0,-999,0.00,,,0.00,homebrew,2013-01-15 03:15:00,
2013-01-14 19:25:00,34.7,-99.9,30.50,SSE,158,0.0,0.0,-999,0.00,,,0.00,homebrew,2013-01-15 03:25:00,
2013-01-14 19:30:00,34.7,-99.9,30.51,SSE,158,0.0,0.0,-999,0.00,,,0.00,homebrew,2013-01-15 03:30:00,
2013-01-14 19:40:00,34.5,-99.9,30.51,SSE,158,0.0,0.0,-999,0.00,,,0.00,homebrew,2013-01-15 03:40:00,
2013-01-14 19:45:00,34.5,-99.9,30.51,SSE,158,0.0,0.0,-999,0.00,,,0.00,homebrew,2013-01-15 03:45:00,
2013-01-14 19:49:00,34.4,-99.9,30.51,SSE,158,0.0,0.0,-999,0.00,,,0.00,homebrew,2013-01-15 03:49:00,
2013-01-14 19:55:00,34.5,-99.9,30.51,SSE,158,0.0,0.0,-999,0.00,,,0.00,homebrew,2013-01-15 03:55:00,
2013-01-14 20:00:00,34.5,-99.9,30.51,SSE,158,0.0,0.0,-999,0.00,,,0.00,homebrew,2013-01-15 04:00:00,
2013-01-14 20:04:00,34.5,-99.9,30.51,SSE,158,0.0,0.0,-999,0.00,,,0.00,homebrew,2013-01-15 04:04:00,
2013-01-14 20:09:00,34.6,-99.9,30.51,SSE,158,0.0,0.0,-999,0.00,,,0.00,homebrew,2013-01-15 04:09:00,
2013-01-14 20:15:00,34.7,-99.9,30.51,SSE,158,0.0,0.0,-999,0.00,,,0.00,homebrew,2013-01-15 04:15:00,
2013-01-14 20:20:00,34.8,-99.9,30.51,SSE,158,0.0,0.0,-999,0.00,,,0.00,homebrew,2013-01-15 04:20:00,
2013-01-14 20:30:00,34.8,-99.9,30.52,SSE,158,0.0,0.0,-999,0.00,,,0.00,homebrew,2013-01-15 04:30:00,
2013-01-14 20:35:00,34.8,-99.9,30.52,SSE,158,0.0,0.0,-999,0.00,,,0.00,homebrew,2013-01-15 04:35:00,
2013-01-14 20:39:00,34.8,-99.9,30.52,SSE,158,0.0,0.0,-999,0.00,,,0.00,homebrew,2013-01-15 04:39:00,
2013-01-14 20:45:00,34.8,-99.9,30.52,SSE,158,0.0,0.0,-999,0.00,,,0.00,homebrew,2013-01-15 04:45:00,
2013-01-14 20:50:00,34.7,-99.9,30.52,SSE,158,0.0,0.0,-999,0.00,,,0.00,homebrew,2013-01-15 04:50:00,
2013-01-14 20:54:00,34.8,-99.9,30.52,SSE,158,0.0,0.0,-999,0.00,,,0.00,homebrew,2013-01-15 04:54:00,
2013-01-14 21:00:00,34.8,-99.9,30.52,SSE,158,0.0,0.0,-999,0.00,,,0.00,homebrew,2013-01-15 05:00:00,
2013-01-14 21:05:00,34.9,-99.9,30.52,SSE,158,0.0,0.0,-999,0.00,,,0.00,homebrew,2013-01-15 05:05:00,
2013-01-14 21:09:00,34.9,-99.9,30.52,SSE,158,0.0,0.0,-999,0.00,,,0.00,homebrew,2013-01-15 05:09:00,
2013-01-14 21:14:00,34.9,-99.9,30.52,SSE,158,0.0,0.0,-999,0.00,,,0.00,homebrew,2013-01-15 05:14:00,
2013-01-14 21:20:00,35.0,-99.9,30.51,SSE,158,0.0,0.0,-999,0.00,,,0.00,homebrew,2013-01-15 05:20:00,
2013-01-14 21:25:00,35.0,-99.9,30.51,SSE,158,0.0,0.0,-999,0.00,,,0.00,homebrew,2013-01-15 05:25:00,
2013-01-14 21:29:00,34.9,-99.9,30.51,SSE,158,0.0,0.0,-999,0.00,,,0.00,homebrew,2013-01-15 05:29:00,
2013-01-14 21:35:00,35.0,-99.9,30.51,SSE,158,0.0,0.0,-999,0.00,,,0.00,homebrew,2013-01-15 05:35:00,
2013-01-14 21:40:00,35.1,-99.9,30.51,SSE,158,0.0,0.0,-999,0.00,,,0.00,homebrew,2013-01-15 05:40:00,
2013-01-14 21:44:00,35.2,-99.9,30.51,SSE,158,0.0,0.0,-999,0.00,,,0.00,homebrew,2013-01-15 05:44:00,
2013-01-14 21:50:00,35.3,-99.9,30.51,SSE,158,0.0,0.0,-999,0.00,,,0.00,homebrew,2013-01-15 05:50:00,
2013-01-14 21:55:00,35.3,-99.9,30.51,ENE,66,0.4,1.4,-999,0.00,,,0.00,homebrew,2013-01-15 05:55:00,
2013-01-14 21:59:00,35.2,-99.9,30.51,NNE,15,0.0,1.9,-999,0.00,,,0.00,homebrew,2013-01-15 05:59:00,
2013-01-14 22:04:00,35.1,-99.9,30.52,NNE,18,0.1,0.0,-999,0.00,,,0.00,homebrew,2013-01-15 06:04:00,
2013-01-14 22:10:00,34.9,-99.9,30.52,NE,35,0.0,1.4,-999,0.00,,,0.00,homebrew,2013-01-15 06:10:00,
2013-01-14 22:15:00,34.9,-99.9,30.52,NE,35,0.0,0.0,-999,0.00,,,0.00,homebrew,2013-01-15 06:15:00,
2013-01-14 22:25:00,34.7,-99.9,30.52,NE,35,0.0,0.0,-999,0.00,,,0.00,homebrew,2013-01-15 06:25:00,
2013-01-14 22:30:00,34.6,-99.9,30.52,NE,35,0.0,0.0,-999,0.00,,,0.00,homebrew,2013-01-15 06:30:00,
2013-01-14 22:40:00,34.4,-99.9,30.52,NE,35,0.0,0.0,-999,0.00,,,0.00,homebrew,2013-01-15 06:40:00,
2013-01-14 22:45:00,34.3,-99.9,30.52,NE,35,0.0,0.0,-999,0.00,,,0.00,homebrew,2013-01-15 06:45:00,
2013-01-14 22:55:00,34.4,-99.9,30.52,East,96,0.8,1.9,-999,0.00,,,0.00,homebrew,2013-01-15 06:55:00,
2013-01-14 23:00:00,34.4,-99.9,30.52,East,90,0.0,1.8,-999,0.00,,,0.00,homebrew,2013-01-15 07:00:00,
2013-01-14 23:04:00,34.5,-99.9,30.53,ENE,62,0.7,2.2,-999,0.00,,,0.00,homebrew,2013-01-15 07:04:00,
2013-01-14 23:09:00,34.6,-99.9,30.53,ENE,75,0.8,2.3,-999,0.00,,,0.00,homebrew,2013-01-15 07:09:00,
2013-01-14 23:15:00,34.6,-99.9,30.53,ENE,73,1.8,3.6,-999,0.00,,,0.00,homebrew,2013-01-15 07:15:00,
2013-01-14 23:20:00,34.5,-99.9,30.53,East,101,0.0,4.4,-999,0.00,,,0.00,homebrew,2013-01-15 07:20:00,
2013-01-14 23:30:00,34.3,-99.9,30.53,East,101,0.0,0.0,-999,0.00,,,0.00,homebrew,2013-01-15 07:30:00,
2013-01-14 23:39:00,34.2,-99.9,30.53,NE,52,0.0,2.3,-999,0.00,,,0.00,homebrew,2013-01-15 07:39:00,
2013-01-14 23:45:00,34.1,-99.9,30.53,NE,50,0.1,0.0,-999,0.00,,,0.00,homebrew,2013-01-15 07:45:00,
2013-01-14 23:50:00,34.2,-99.9,30.53,NE,49,0.0,0.9,-999,0.00,,,0.00,homebrew,2013-01-15 07:50:00,